CW6617 Weather Reports


time (UTC)temp
C
wind
direction
speed
KPH
gust
KPH
rain 1hr
cm
rain 24hr
cm
rain mn
cm
humidity
%
barometer
mb
20260902144704 18 189 16.1 33.8 0.00 0.15 0.15 84 1018.0
20260902144204 19 171 19.3 35.4 0.00 0.15 0.15 83 1018.0
20260902143705 19 178 19.3 25.7 0.00 0.15 0.15 80 1017.9
20260902143204 19 178 16.1 29.0 0.00 0.15 0.15 80 1018.1
20260902141704 19 177 11.3 32.2 0.00 0.15 0.15 78 1018.1
20260902140704 19 182 19.3 33.8 0.00 0.15 0.15 78 1018.1
20260902134704 19 177 11.3 20.9 0.00 0.15 0.15 78 1018.2
20260902134203 19 171 19.3 29.0 0.00 0.15 0.15 78 1018.2
20260902133704 19 181 14.5 20.9 0.00 0.15 0.15 77 1018.3
20260902133203 19 178 14.5 29.0 0.00 0.15 0.15 77 1018.4
20260902131704 19 175 17.7 35.4 0.00 0.15 0.15 76 1018.3
20260902131204 19 182 17.7 24.1 0.00 0.15 0.15 76 1018.5
20260902130704 19 196 11.3 24.1 0.00 0.15 0.15 75 1018.5
20260902130204 19 169 16.1 32.2 0.00 0.15 0.15 75 1018.4
20260902124703 18 202 8.0 24.1 0.00 0.15 0.15 76 1018.5
20260902123704 18 182 9.7 27.4 0.00 0.15 0.15 76 1018.6
20260902123204 18 166 19.3 33.8 0.00 0.15 0.15 76 1018.6
20260902121204 18 175 16.1 25.7 0.00 0.15 0.15 78 1018.7
20260902120204 18 182 16.1 29.0 0.00 0.15 0.15 78 1018.8
20260902114703 18 186 14.5 25.7 0.00 0.15 0.15 81 1018.9
20260902113704 18 171 14.5 24.1 0.03 0.15 0.15 85 1018.9
20260902113204 18 174 17.7 35.4 0.03 0.15 0.15 85 1018.9
20260902111704 17 183 12.9 20.9 0.03 0.15 0.15 88 1019.1
20260902111204 17 174 16.1 22.5 0.03 0.15 0.15 89 1019.3
20260902110205 17 178 12.9 27.4 0.03 0.15 0.15 90 1019.3
20260902104704 17 169 14.5 22.5 0.03 0.15 0.15 92 1019.3
20260902104204 18 177 8.0 12.9 0.00 0.13 0.13 92 1019.4
20260902103704 18 170 9.7 20.9 0.03 0.13 0.13 92 1019.4
20260902103204 17 166 11.3 19.3 0.03 0.13 0.13 93 1019.6
20260902101204 17 172 8.0 14.5 0.13 0.13 0.13 93 1019.7
20260902100704 17 179 4.8 9.7 0.13 0.13 0.13 92 1019.7
20260902100204 17 179 3.2 14.5 0.13 0.13 0.13 92 1019.7
20260902094703 17 168 4.8 8.0 0.13 0.13 0.13 92 1019.8
20260902094204 17 168 3.2 9.7 0.13 0.13 0.13 91 1019.8
20260902093704 17 177 1.6 4.8 0.10 0.10 0.10 90 1019.8
20260902093203 17 175 1.6 4.8 0.10 0.10 0.10 89 1019.9
20260902091703 17 177 3.2 11.3 0.00 0.00 0.00 87 1020.0
20260902091204 17 175 3.2 9.7 0.00 0.00 0.00 87 1019.9
20260902090704 17 172 1.6 12.9 0.00 0.00 0.00 87 1020.0
20260902090205 17 180 6.4 19.3 0.00 0.00 0.00 87 1020.1
20260902084704 17 173 4.8 12.9 0.00 0.00 0.00 86 1019.7
20260902084205 17 184 8.0 11.3 0.00 0.00 0.00 86 1019.7
20260902083704 17 172 9.7 14.5 0.00 0.00 0.00 86 1019.6
20260902083204 17 170 9.7 20.9 0.00 0.00 0.00 86 1019.7
20260902081704 17 171 6.4 16.1 0.00 0.00 0.00 87 1019.7
20260902081204 17 170 4.8 11.3 0.00 0.00 0.00 87 1019.6
20260902074705 17 166 8.0 14.5 0.00 0.00 0.00 89 1019.4
20260902074204 17 180 4.8 9.7 0.00 0.00 0.00 89 1019.5
20260902073204 16 181 4.8 9.7 0.00 0.00 0.00 90 1019.4
20260902071703 16 167 4.8 11.3 0.00 0.00 0.00 91 1019.4
20260902071204 16 168 3.2 11.3 0.00 0.00 0.00 91 1019.3
20260902070703 16 170 3.2 9.7 0.00 0.00 0.00 91 1019.3
20260902070204 16 170 4.8 9.7 0.00 0.00 0.00 91 1019.4
20260902064703 16 182 3.2 9.7 0.00 0.00 0.00 91 1019.2
20260902063204 15 172 0.0 0.0 0.00 0.00 0.00 91 1019.3
20260902061204 15 171 0.0 0.0 0.00 0.00 0.00 90 1019.1
20260902060706 15 171 0.0 0.0 0.00 0.00 0.00 90 1019.1
20260902060204 15 171 0.0 0.0 0.00 0.00 0.00 90 1019.1
20260902054704 15 171 0.0 0.0 0.00 0.00 0.00 90 1019.2
20260902054204 15 171 0.0 0.0 0.00 0.00 0.00 89 1019.3
20260902053704 15 171 0.0 0.0 0.00 0.00 0.00 89 1019.2
20260902053204 15 171 0.0 0.0 0.00 0.00 0.00 89 1019.2
20260902050703 15 172 0.0 0.0 0.00 0.00 0.00 89 1019.1
20260902050204 15 172 0.0 0.0 0.00 0.00 0.00 88 1019.1
20260902044704 15 171 0.0 0.0 0.00 0.00 0.00 88 1019.1
20260902044204 15 171 0.0 0.0 0.00 0.00 0.00 88 1019.1
20260902043704 15 172 0.0 0.0 0.00 0.00 0.00 88 1019.1
20260902043204 15 172 0.0 0.0 0.00 0.00 0.00 88 1019.2
20260902041704 15 172 0.0 0.0 0.00 0.00 0.00 88 1019.3
20260902040703 15 172 0.0 0.0 0.00 0.00 0.00 88 1019.4
20260902034704 15 171 0.0 0.0 0.00 0.00 0.00 87 1019.2
20260902034203 15 171 0.0 0.0 0.00 0.00 0.00 87 1019.2
20260902033703 15 171 0.0 1.6 0.00 0.00 0.00 87 1019.4
20260902033203 15 172 1.6 8.0 0.00 0.00 0.00 87 1019.3
20260902031703 15 172 1.6 3.2 0.00 0.00 0.00 86 1019.3
20260902031204 15 172 3.2 4.8 0.00 0.00 0.00 87 1019.3
20260902030703 15 172 3.2 8.0 0.00 0.00 0.00 87 1019.3
20260902030204 15 171 4.8 9.7 0.00 0.00 0.00 86 1019.3
20260902024204 15 173 0.0 0.0 0.00 0.00 0.00 86 1019.5
20260902023203 16 173 0.0 3.2 0.00 0.00 0.00 86 1019.5
20260902021704 16 173 1.6 4.8 0.00 0.00 0.00 86 1019.5
20260902021204 16 173 1.6 3.2 0.00 0.00 0.00 85 1019.4
20260902020705 16 173 1.6 3.2 0.00 0.00 0.00 85 1019.4
20260902020211 16 173 1.6 9.7 0.00 0.00 0.00 85 1019.5
20260902014704 16 176 3.2 4.8 0.00 0.00 0.00 85 1019.7
20260902014204 16 176 3.2 8.0 0.00 0.00 0.00 85 1019.7
20260902013705 16 189 3.2 4.8 0.00 0.00 0.00 85 1019.7
20260902013204 16 224 3.2 4.8 0.00 0.00 0.00 85 1019.8
20260902011704 16 230 0.0 0.0 0.00 0.00 0.00 84 1020.0
20260902010704 16 230 0.0 1.6 0.00 0.00 0.00 84 1019.9
20260902010206 16 230 0.0 1.6 0.00 0.00 0.00 84 1019.9
20260902004704 16 230 1.6 3.2 0.00 0.00 0.00 83 1020.0
20260902004203 16 230 1.6 3.2 0.00 0.00 0.00 83 1020.1
20260902003705 16 230 0.0 3.2 0.00 0.00 0.00 83 1019.9
20260902003204 16 230 0.0 1.6 0.00 0.00 0.00 83 1020.0
20260902001703 16 230 0.0 1.6 0.00 0.00 0.00 82 1019.9
20260902001203 16 230 0.0 1.6 0.00 0.00 0.00 82 1019.9
20260902000703 16 230 0.0 4.8 0.00 0.00 0.00 82 1020.0
20260902000204 16 227 1.6 4.8 0.00 0.00 0.00 82 1020.0
20260901234705 16 221 0.0 3.2 0.00 0.00 0.00 82 1020.0
20260901234204 16 221 1.6 3.2 0.00 0.00 0.00 82 1020.0
20260901233704 16 221 3.2 4.8 0.00 0.00 0.00 82 1020.0
20260901233203 16 221 0.0 0.0 0.00 0.00 0.00 82 1020.1
20260901230703 17 221 1.6 3.2 0.00 0.00 0.00 82 1020.1
20260901230204 17 214 1.6 3.2 0.00 0.00 0.00 82 1020.2
20260901224704 16 213 1.6 3.2 0.00 0.00 0.00 82 1020.1
20260901224204 16 213 3.2 4.8 0.00 0.00 0.00 81 1020.1
20260901223704 17 240 1.6 3.2 0.00 0.00 0.00 81 1020.2
20260901221703 17 240 1.6 3.2 0.00 0.00 0.00 80 1020.3
20260901221204 17 240 0.0 3.2 0.00 0.00 0.00 80 1020.2
20260901220204 17 225 0.0 3.2 0.00 0.00 0.00 79 1020.3
20260901214704 17 231 0.0 1.6 0.00 0.00 0.00 79 1020.3
20260901214204 17 231 0.0 3.2 0.00 0.00 0.00 78 1020.3
20260901213704 17 231 0.0 1.6 0.00 0.00 0.00 78 1020.4
20260901211204 17 196 1.6 4.8 0.00 0.00 0.00 77 1020.3
20260901210704 17 197 0.0 3.2 0.00 0.00 0.00 77 1020.3
20260901210203 17 197 0.0 4.8 0.00 0.00 0.00 77 1020.3
20260901204704 17 190 3.2 8.0 0.00 0.00 0.00 77 1020.3
20260901204203 17 194 1.6 3.2 0.00 0.00 0.00 76 1020.3
20260901203706 17 194 1.6 3.2 0.00 0.00 0.00 76 1020.2
20260901201703 17 170 1.6 8.0 0.00 0.00 0.00 76 1020.1
20260901201204 17 170 1.6 8.0 0.00 0.00 0.00 76 1020.1
20260901200704 17 170 1.6 3.2 0.00 0.00 0.00 76 1020.2
20260901200203 17 170 0.0 8.0 0.00 0.00 0.00 75 1020.1
20260901194704 17 170 3.2 8.0 0.00 0.00 0.00 74 1020.0
20260901194204 17 159 1.6 12.9 0.00 0.00 0.00 74 1019.9
20260901193705 18 183 3.2 12.9 0.00 0.00 0.00 74 1019.9
20260901193203 18 215 1.6 11.3 0.00 0.00 0.00 73 1019.9
20260901191704 18 173 3.2 11.3 0.00 0.00 0.00 72 1019.8
20260901191205 18 171 1.6 11.3 0.00 0.00 0.00 72 1019.9
20260901190706 18 183 4.8 12.9 0.00 0.00 0.00 72 1019.8
20260901190204 18 181 3.2 16.1 0.00 0.00 0.00 71 1019.8
20260901184704 18 246 3.2 9.7 0.00 0.00 0.00 70 1019.9
20260901184206 19 175 3.2 9.7 0.00 0.00 0.00 70 1019.8
20260901183704 19 192 3.2 8.0 0.00 0.00 0.00 70 1019.7
20260901183204 19 196 4.8 14.5 0.00 0.00 0.00 69 1019.6
20260901181705 20 187 8.0 14.5 0.00 0.00 0.00 69 1019.5
20260901181204 20 177 3.2 12.9 0.00 0.00 0.00 68 1019.6
20260901180704 20 186 9.7 20.9 0.00 0.00 0.00 68 1019.8
20260901180204 20 176 8.0 19.3 0.00 0.00 0.00 67 1019.8
20260901174704 20 176 8.0 22.5 0.00 0.00 0.00 65 1019.7
20260901173704 21 181 6.4 19.3 0.00 0.00 0.00 63 1019.6
20260901173204 21 190 8.0 19.3 0.00 0.00 0.00 62 1019.5
20260901171705 22 173 3.2 9.7 0.00 0.00 0.00 54 1019.5
20260901171204 22 253 3.2 12.9 0.00 0.00 0.00 52 1019.5
20260901170703 22 198 4.8 8.0 0.00 0.00 0.00 53 1019.4
20260901170205 22 285 3.2 14.5 0.00 0.00 0.00 53 1019.3
20260901164704 22 235 8.0 16.1 0.00 0.00 0.00 54 1019.4
20260901164204 22 287 8.0 16.1 0.00 0.00 0.00 53 1019.4
20260901163705 22 293 4.8 14.5 0.00 0.00 0.00 53 1019.3
20260901163204 22 290 3.2 16.1 0.00 0.00 0.00 53 1019.4
20260901161705 22 288 4.8 11.3 0.00 0.00 0.00 53 1019.4
20260901161204 22 274 9.7 19.3 0.00 0.00 0.00 53 1019.4
20260901160204 21 319 8.0 14.5 0.00 0.00 0.00 53 1019.5
20260901154705 21 301 4.8 16.1 0.00 0.00 0.00 53 1019.5
20260901154204 22 265 8.0 16.1 0.00 0.00 0.00 52 1019.5
20260901151703 22 296 4.8 14.5 0.00 0.00 0.00 50 1019.5
20260901151205 22 274 8.0 27.4 0.00 0.00 0.00 51 1019.7
20260901150703 22 300 6.4 11.3 0.00 0.00 0.00 51 1019.6
20260901150204 22 278 8.0 20.9 0.00 0.00 0.00 50 1019.5